HBGRJ LSZR-LFSB

Flight info

Callsign HBGRJ
Flight time 0h 27m
Altitude 8000
Route SITOR DCT ZUE DCT TRA DCT BLM
Aircraft B58T/L-SBDFGRY/C

Departure

Time 2026-04-26 22:58
Airport Sankt Gallen Altenrhein Airport (LSZR)

Arrival

Time 2026-04-26 23:26
Airport EuroAirport Basel–Mulhouse–Freiburg (LFSB)
Time Latitude Longitude Altitude Speed Heading
2026-04-26 22:50 47.48650 9.56486 1283 ft 0 kts 192°
2026-04-26 22:54 47.48637 9.56481 1312 ft 6 kts 193°
2026-04-26 22:54 47.48611 9.56524 1307 ft 9 kts 99°
2026-04-26 22:54 47.48607 9.56557 1307 ft 6 kts 98°
2026-04-26 22:55 47.48605 9.56582 1307 ft 9 kts 98°
2026-04-26 22:55 47.48591 9.56712 1307 ft 15 kts 100°
2026-04-26 22:55 47.48578 9.56861 1307 ft 9 kts 99°
2026-04-26 22:55 47.48569 9.56943 1307 ft 8 kts 98°
2026-04-26 22:56 47.48560 9.57025 1308 ft 9 kts 98°
2026-04-26 22:56 47.48524 9.57087 1308 ft 10 kts 188°
2026-04-26 22:56 47.48479 9.57078 1309 ft 0 kts 187°
2026-04-26 22:57 47.48477 9.57078 1309 ft 2 kts 187°
2026-04-26 22:57 47.48433 9.57068 1311 ft 10 kts 187°
2026-04-26 22:57 47.48409 9.57004 1310 ft 0 kts 276°
2026-04-26 22:58 47.48439 9.56704 1305 ft 77 kts 278°
2026-04-26 22:58 47.48550 9.55701 1569 ft 112 kts 278°
2026-04-26 22:58 47.48691 9.54426 2004 ft 132 kts 280°
2026-04-26 22:59 47.48850 9.53064 2408 ft 136 kts 281°
2026-04-26 22:59 47.49007 9.51684 2802 ft 141 kts 283°
2026-04-26 22:59 47.49170 9.50236 3186 ft 144 kts 283°
2026-04-26 22:59 47.49333 9.48774 3582 ft 145 kts 282°
2026-04-26 23:00 47.49498 9.47294 3938 ft 147 kts 282°
2026-04-26 23:00 47.49667 9.45786 4348 ft 151 kts 280°
2026-04-26 23:00 47.49836 9.44198 4716 ft 158 kts 281°
2026-04-26 23:00 47.50023 9.42587 5117 ft 159 kts 280°
2026-04-26 23:01 47.50208 9.40954 5485 ft 160 kts 280°
2026-04-26 23:01 47.50330 9.39867 5740 ft 162 kts 278°
2026-04-26 23:01 47.50509 9.38210 6123 ft 163 kts 279°
2026-04-26 23:01 47.50688 9.36587 6517 ft 157 kts 278°
2026-04-26 23:02 47.50866 9.35016 6862 ft 154 kts 278°
2026-04-26 23:02 47.51045 9.33447 7172 ft 154 kts 282°
2026-04-26 23:02 47.51304 9.31906 7485 ft 155 kts 282°
2026-04-26 23:02 47.51548 9.30350 7803 ft 155 kts 282°
2026-04-26 23:03 47.51795 9.28794 8125 ft 156 kts 283°
2026-04-26 23:03 47.52052 9.27178 8232 ft 170 kts 283°
2026-04-26 23:03 47.52332 9.25428 8233 ft 180 kts 283°
2026-04-26 23:03 47.52627 9.23581 8241 ft 188 kts 283°
2026-04-26 23:04 47.52931 9.21685 8235 ft 191 kts 283°
2026-04-26 23:04 47.53236 9.19755 8228 ft 195 kts 283°
2026-04-26 23:04 47.53549 9.17786 8233 ft 198 kts 283°
2026-04-26 23:04 47.53868 9.15799 8232 ft 199 kts 283°
2026-04-26 23:05 47.54181 9.13821 8233 ft 200 kts 283°
2026-04-26 23:05 47.54501 9.11807 8236 ft 201 kts 283°
2026-04-26 23:05 47.54820 9.09786 8224 ft 202 kts 283°
2026-04-26 23:05 47.55141 9.07762 8229 ft 202 kts 283°
2026-04-26 23:06 47.55461 9.05741 8234 ft 202 kts 283°
2026-04-26 23:06 47.55780 9.03717 8230 ft 202 kts 283°
2026-04-26 23:06 47.56099 9.01689 8230 ft 202 kts 283°
2026-04-26 23:06 47.56418 8.99664 8224 ft 201 kts 283°
2026-04-26 23:07 47.56734 8.97650 8223 ft 201 kts 283°
2026-04-26 23:07 47.57050 8.95638 8226 ft 200 kts 283°
2026-04-26 23:07 47.57361 8.93654 8230 ft 201 kts 283°
2026-04-26 23:07 47.57679 8.91624 8231 ft 203 kts 283°
2026-04-26 23:08 47.57998 8.89593 8224 ft 202 kts 283°
2026-04-26 23:08 47.58312 8.87566 8224 ft 202 kts 283°
2026-04-26 23:08 47.58629 8.85545 8222 ft 201 kts 283°
2026-04-26 23:08 47.58942 8.83533 8221 ft 200 kts 283°
2026-04-26 23:09 47.59274 8.81526 8215 ft 201 kts 288°
2026-04-26 23:09 47.59773 8.79596 8227 ft 201 kts 292°
2026-04-26 23:09 47.60279 8.77662 8238 ft 201 kts 291°
2026-04-26 23:09 47.60778 8.75720 8236 ft 203 kts 291°
2026-04-26 23:10 47.61276 8.73767 8229 ft 201 kts 291°
2026-04-26 23:10 47.61773 8.71822 8227 ft 202 kts 291°
2026-04-26 23:10 47.62275 8.69879 8234 ft 201 kts 291°
2026-04-26 23:10 47.62773 8.67937 8237 ft 202 kts 291°
2026-04-26 23:11 47.63271 8.65993 8237 ft 202 kts 292°
2026-04-26 23:11 47.63776 8.64039 8241 ft 203 kts 291°
2026-04-26 23:11 47.64277 8.62078 8236 ft 204 kts 291°
2026-04-26 23:11 47.64774 8.60111 8232 ft 204 kts 291°
2026-04-26 23:12 47.65280 8.58139 8241 ft 205 kts 291°
2026-04-26 23:12 47.65786 8.56150 8238 ft 205 kts 291°
2026-04-26 23:12 47.66285 8.54180 8234 ft 203 kts 291°
2026-04-26 23:12 47.66784 8.52222 8233 ft 202 kts 291°
2026-04-26 23:13 47.67281 8.50271 8233 ft 202 kts 291°
2026-04-26 23:13 47.67779 8.48319 8228 ft 202 kts 291°
2026-04-26 23:13 47.68273 8.46366 8230 ft 202 kts 291°
2026-04-26 23:13 47.68750 8.44401 8231 ft 203 kts 285°
2026-04-26 23:14 47.68816 8.42351 8221 ft 202 kts 262°
2026-04-26 23:14 47.68585 8.40270 8219 ft 202 kts 261°
2026-04-26 23:14 47.68366 8.38206 8215 ft 204 kts 262°
2026-04-26 23:14 47.68153 8.36122 8227 ft 205 kts 261°
2026-04-26 23:15 47.67925 8.34031 8233 ft 205 kts 261°
2026-04-26 23:15 47.67698 8.31915 8227 ft 208 kts 261°
2026-04-26 23:15 47.67476 8.29821 8235 ft 209 kts 262°
2026-04-26 23:15 47.67256 8.27665 8225 ft 212 kts 261°
2026-04-26 23:16 47.67025 8.25527 8222 ft 209 kts 262°
2026-04-26 23:16 47.66794 8.23402 8224 ft 208 kts 262°
2026-04-26 23:16 47.66583 8.21283 8224 ft 206 kts 262°
2026-04-26 23:16 47.66377 8.19187 8226 ft 205 kts 261°
2026-04-26 23:17 47.66172 8.17082 8121 ft 206 kts 262°
2026-04-26 23:17 47.65970 8.15001 7952 ft 203 kts 262°
2026-04-26 23:17 47.65770 8.12937 7774 ft 204 kts 262°
2026-04-26 23:17 47.65560 8.10863 7601 ft 204 kts 261°
2026-04-26 23:18 47.65346 8.08800 7432 ft 201 kts 262°
2026-04-26 23:18 47.65144 8.06728 7251 ft 203 kts 262°
2026-04-26 23:18 47.64940 8.04662 7084 ft 202 kts 262°
2026-04-26 23:18 47.64735 8.02603 6913 ft 201 kts 262°
2026-04-26 23:19 47.64530 8.00514 6757 ft 205 kts 262°
2026-04-26 23:19 47.64326 7.98451 6594 ft 204 kts 261°
2026-04-26 23:19 47.64111 7.96395 6409 ft 201 kts 262°
2026-04-26 23:19 47.63908 7.94356 6234 ft 199 kts 262°
2026-04-26 23:20 47.63709 7.92324 6044 ft 197 kts 262°
2026-04-26 23:20 47.63503 7.90324 5869 ft 198 kts 262°
2026-04-26 23:20 47.63301 7.88300 5685 ft 197 kts 262°
2026-04-26 23:20 47.63099 7.86282 5513 ft 199 kts 262°
2026-04-26 23:21 47.62891 7.84268 5340 ft 197 kts 262°
2026-04-26 23:21 47.62685 7.82268 5164 ft 195 kts 262°
2026-04-26 23:21 47.62482 7.80276 5001 ft 197 kts 262°
2026-04-26 23:21 47.62279 7.78265 4753 ft 198 kts 263°
2026-04-26 23:22 47.62079 7.76241 4447 ft 200 kts 262°
2026-04-26 23:22 47.61868 7.74241 4154 ft 199 kts 262°
2026-04-26 23:22 47.61656 7.72208 3860 ft 200 kts 262°
2026-04-26 23:22 47.61457 7.70181 3549 ft 195 kts 262°
2026-04-26 23:23 47.61254 7.68211 3248 ft 193 kts 261°
2026-04-26 23:23 47.61053 7.66290 2943 ft 186 kts 262°
2026-04-26 23:23 47.60786 7.64411 2623 ft 185 kts 257°
2026-04-26 23:23 47.60504 7.62641 2312 ft 164 kts 258°
2026-04-26 23:24 47.60261 7.61066 2015 ft 150 kts 258°
2026-04-26 23:24 47.60038 7.59656 1966 ft 137 kts 257°
2026-04-26 23:24 47.59814 7.58297 1714 ft 130 kts 258°
2026-04-26 23:24 47.59637 7.57099 1486 ft 113 kts 260°
2026-04-26 23:25 47.59457 7.55961 1297 ft 115 kts 258°
2026-04-26 23:25 47.59269 7.54811 1120 ft 114 kts 262°
2026-04-26 23:25 47.59106 7.53681 907 ft 106 kts 259°
2026-04-26 23:25 47.58972 7.52825 886 ft 68 kts 257°
2026-04-26 23:26 47.58895 7.52373 889 ft 29 kts 251°
2026-04-26 23:26 47.58854 7.52124 890 ft 22 kts 258°
2026-04-26 23:26 47.58825 7.51909 890 ft 20 kts 259°
2026-04-26 23:26 47.58812 7.51751 889 ft 9 kts 271°
2026-04-26 23:27 47.58876 7.51681 882 ft 16 kts 348°
2026-04-26 23:27 47.58957 7.51691 881 ft 12 kts 36°
2026-04-26 23:27 47.59034 7.51800 881 ft 19 kts 45°
2026-04-26 23:27 47.59098 7.51896 881 ft 19 kts 46°
2026-04-26 23:28 47.59210 7.52062 881 ft 15 kts 45°
2026-04-26 23:28 47.59269 7.52177 881 ft 14 kts 64°
2026-04-26 23:28 47.59312 7.52309 881 ft 15 kts 66°
2026-04-26 23:28 47.59357 7.52451 882 ft 16 kts 64°
2026-04-26 23:29 47.59405 7.52597 886 ft 16 kts 64°
2026-04-26 23:29 47.59454 7.52752 885 ft 18 kts 65°
2026-04-26 23:29 47.59543 7.52827 882 ft 16 kts 335°
2026-04-26 23:29 47.59645 7.52757 881 ft 16 kts 335°
2026-04-26 23:30 47.59747 7.52687 881 ft 16 kts 336°
2026-04-26 23:30 47.59849 7.52615 881 ft 15 kts 335°
2026-04-26 23:30 47.59943 7.52552 881 ft 15 kts 334°
2026-04-26 23:30 47.60040 7.52483 881 ft 16 kts 336°
2026-04-26 23:31 47.60137 7.52419 881 ft 12 kts 339°
2026-04-26 23:31 47.60192 7.52448 881 ft 10 kts 64°
2026-04-26 23:31 47.60232 7.52491 881 ft 7 kts 356°
2026-04-26 23:31 47.60270 7.52534 881 ft 7 kts 46°
2026-04-26 23:32 47.60270 7.52573 881 ft 0 kts 141°